Flag for USA

Past Weather in Livonia, Michigan, USA — Yesterday and Last 2 Weeks

Currently: 28 °F. Ice fog. (Weather station: Detroit Metropolitan Wayne County Airport, USA). See more current weather

Past Weather in Livonia — Graph

°F

Livonia Temperature Yesterday

Maximum temperature yesterday: 41 °F (at 1:53 am)
Minimum temperature yesterday: 29 °F (at 9:53 pm)
Average temperature yesterday: 35 °F

High & Low Weather Summary for the Past Weeks

 TemperatureHumidityPressure
High44 °F (Jan 13, 2:53 pm)97% (Jan 3, 10:53 am)30.39 "Hg (Jan 3, 10:53 am)
Low21 °F (Jan 9, 7:53 am)47% (Jan 9, 3:53 pm)29.51 "Hg (Jan 15, 11:38 am)
Average32 °F81%30.03 "Hg
* Reported Jan 1 11:53 am — Jan 16 11:53 am, Livonia. Weather by CustomWeather, © 2021

Note: Actual official high and low records may vary slightly from our data, if they occured in-between our weather recording intervals... More about our weather records

Livonia Weather History for the Previous 24 Hours

Scroll right to see more
 ConditionsComfort  
Time TempWeatherWind HumidityBarometerVisibility
11:53 am
Sat, Jan 16
28 °FIce fog.6 mph93%29.61 "Hg6 mi
11:34 am28 °FIce fog.7 mph93%29.61 "Hg5 mi
10:53 am28 °FIce fog.7 mph93%29.63 "Hg2 mi
9:53 am28 °FIce fog.6 mph93%29.62 "Hg1 mi
9:23 am28 °FIce fog.7 mph93%29.60 "Hg1 mi
8:53 am28 °FIce fog.6 mph93%29.62 "Hg1 mi
7:53 am28 °FIce fog.No wind96%29.61 "Hg1 mi
7:15 am28 °FIce fog.5 mph96%29.60 "Hg1 mi
6:53 am28 °FIce fog.3 mph93%29.61 "Hg1 mi
6:42 am28 °FIce fog.6 mph93%29.59 "Hg1 mi
5:53 am29 °FIce fog.No wind93%29.60 "Hg1 mi
4:53 am29 °FIce fog.3 mph93%29.60 "Hg1 mi
4:27 am29 °FIce fog.3 mph96%29.60 "Hg1 mi
3:53 am29 °FIce fog.6 mph93%29.62 "Hg1 mi
3:24 am29 °FIce fog.6 mph96%29.61 "Hg1 mi
3:03 am29 °FIce fog.8 mph93%29.61 "Hg1 mi
2:35 am29 °FIce fog.3 mph93%29.62 "Hg4 mi
2:04 am28 °FIce fog.3 mph89%29.62 "Hg6 mi
1:53 am27 °FIce fog.6 mph89%29.63 "Hg6 mi
12:53 am27 °FPassing clouds.5 mph92%29.64 "Hg8 mi
11:53 pm
Fri, Jan 15
29 °FPassing clouds.5 mph85%29.64 "Hg9 mi
10:53 pm30 °FPassing clouds.5 mph85%29.64 "Hg9 mi
9:53 pm29 °FPassing clouds.5 mph85%29.64 "Hg8 mi
8:53 pm30 °FIce fog.7 mph89%29.64 "Hg6 mi
7:53 pm32 °FIce fog.6 mph88%29.64 "Hg6 mi
6:53 pm34 °FPassing clouds.6 mph88%29.63 "Hg7 mi
5:53 pm35 °FPassing clouds.3 mph82%29.61 "Hg7 mi
4:58 pm36 °FBroken clouds.5 mph85%29.57 "Hg7 mi
4:14 pm36 °FBroken clouds.9 mph89%29.57 "Hg7 mi
4:00 pm35 °FCloudy.12 mph92%29.57 "Hg7 mi
3:22 pm35 °FFog.10 mph92%29.55 "Hg5 mi
2:53 pm35 °FLight rain. Fog.8 mph92%29.54 "Hg4 mi
1:53 pm34 °FLight snow. Fog.7 mph92%29.52 "Hg2 mi
Weather by CustomWeather, © 2021

See weather overview